NOAA 7 DEB

Satellite information

Favourite Embed

Satellite Type and Status

DEBRISIN ORBIT

Key statistics

Satellite NOAA 7 DEB at a glance.

Uptime

16148

Days in orbit

Revolutions

≈ 14.4

Per day

Orbit

SSO

Sun Synchronous Orbit

Inclination

98.5

Latest

Satellite identification and parameters

Extended collection of information and parameters for NOAA 7 DEB.

Object identification

Identified? True

Debris? True

Object name: NOAA 7 DEB

International designator: 1981-059F

Object number (NORAD): 24914

Object ID (CCSDS): 24914

Country: UNITED STATES OF AMERICA (US)

Current information (Y/N): Y

RCS size: MEDIUM

Orbital parameters

Period: 99.822 minutes

Inclination: 98.5191 deg

SMA: 7128.176 km

Apoapsis: 763.673 km

Periapsis: 736.409 km

RAAN: 299.5486 deg

Eccentricy: 0.0019124

Argument of periapsis: 249.09 deg

Mean anomaly: 110.8243 deg

Mean motion: 14.42564045 rev/day

Mean motion (dot): 0.00001035 rev/day2

B* drag term: 0.00032455613 1/REarth

Two-line elements (TLE)

Creation date: Sept. 8, 2025, 3:16 a.m.

Reference frame: TEME

Reference center: EARTH

Epoch: Sept. 7, 2025, 8:19 p.m. UTC

TLE line 0: 0 NOAA 7 DEB

TLE line 1: 1 24914U 81059F 25250.84713786 .00001035 00000-0 32456-3 0 9993

TLE line 2: 2 24914 98.5191 299.5486 0019124 249.0900 110.8243 14.42564045463927

Live tracking on map

Real-time ground track for satellite NOAA 7 DEB.

In-orbit conjunctions

A list of the most updated potential collisions computed for object NOAA 7 DEB.

Target Orbit TCA Probability of collision Miss distance Type
COSMOS 1867 COOLANT LEO 2025-03-05 23:52:46 0.0001236514 344.0 (m) DEBRIS

Associated space launch

Third generation LEO meteorological satellite

NOAA 7 DEB was lifted into orbit during the mission ‘Atlas F | NOAA 7’, on board a Atlas F space rocket.

The launch took place on June 23, 1981, 10:52 a.m. from Space Launch Complex 3W.

For more information about the launch, click the button.

Launch to space Atlas F | NOAA 7
Atlas F | NOAA 7

Agency: N/A

Status: Launch Successful

Launch date: June 23, 1981, 10:52 a.m. UTC

Rocket: Atlas F

Launch pad: Space Launch Complex 3W

Location: Vandenberg SFB, CA, USA

...

Latest news about this satellite

There are no fresh news available about this satellite. Check back as we update our databases every day.


Newsletter sign-up

Weekly statistics, charts and insights to help you stay on top of the space industry.